Time,TemperatureF,DewpointF,PressureIn,WindDirection,WindDirectionDegrees,WindSpeedMPH,WindSpeedGustMPH,Humidity,HourlyPrecipIn,Conditions,Clouds,dailyrainin,SoftwareType,DateUTC
2013-04-05 00:07:00,36.6,30.0,30.09,SW,228,1.0,9.0,76,0.00,,,0.00,weatherlink.com 1.10,2013-04-05 04:07:00,
2013-04-05 00:22:00,36.5,30.0,30.09,ESE,115,3.0,6.0,77,0.00,,,0.00,weatherlink.com 1.10,2013-04-05 04:22:00,
2013-04-05 00:37:00,36.6,30.0,30.08,ESE,116,1.0,10.0,78,0.00,,,0.00,weatherlink.com 1.10,2013-04-05 04:37:00,
2013-04-05 00:52:00,36.7,30.0,30.08,SSE,158,1.0,7.0,77,0.00,,,0.00,weatherlink.com 1.10,2013-04-05 04:52:00,
2013-04-05 01:08:00,36.8,30.0,30.07,South,172,2.0,6.0,77,0.00,,,0.00,weatherlink.com 1.10,2013-04-05 05:08:00,
2013-04-05 01:23:00,37.0,30.0,30.06,SE,143,5.0,8.0,76,0.00,,,0.00,weatherlink.com 1.10,2013-04-05 05:23:00,
2013-04-05 01:38:00,37.2,30.0,30.06,SE,141,6.0,10.0,74,0.00,,,0.00,weatherlink.com 1.10,2013-04-05 05:38:00,
2013-04-05 01:53:00,37.3,29.0,30.05,ESE,105,3.0,8.0,73,0.00,,,0.00,weatherlink.com 1.10,2013-04-05 05:53:00,
2013-04-05 02:08:00,37.3,30.0,30.05,South,173,7.0,7.0,74,0.00,,,0.00,weatherlink.com 1.10,2013-04-05 06:08:00,
2013-04-05 02:23:00,37.2,30.0,30.04,SSE,163,10.0,11.0,74,0.00,,,0.00,weatherlink.com 1.10,2013-04-05 06:23:00,
2013-04-05 02:38:00,37.2,30.0,30.04,SE,135,2.0,8.0,75,0.00,,,0.00,weatherlink.com 1.10,2013-04-05 06:38:00,
2013-04-05 02:53:00,37.0,30.0,30.03,SE,128,2.0,6.0,76,0.00,,,0.00,weatherlink.com 1.10,2013-04-05 06:53:00,
2013-04-05 03:08:00,37.0,30.0,30.03,SSE,156,2.0,7.0,76,0.00,,,0.00,weatherlink.com 1.10,2013-04-05 07:08:00,
2013-04-05 03:23:00,37.1,30.0,30.02,SSW,212,3.0,7.0,75,0.00,,,0.00,weatherlink.com 1.10,2013-04-05 07:23:00,
2013-04-05 03:38:00,37.1,30.0,30.01,SSE,163,5.0,6.0,74,0.00,,,0.00,weatherlink.com 1.10,2013-04-05 07:38:00,
2013-04-05 03:53:00,37.1,30.0,30.01,SE,137,6.0,7.0,74,0.00,,,0.00,weatherlink.com 1.10,2013-04-05 07:53:00,
2013-04-05 04:08:00,37.1,29.0,30.00,SSW,197,2.0,5.0,73,0.00,,,0.00,weatherlink.com 1.10,2013-04-05 08:08:00,
2013-04-05 04:23:00,37.2,29.0,30.01,SW,228,0.0,5.0,72,0.00,,,0.00,weatherlink.com 1.10,2013-04-05 08:23:00,
2013-04-05 04:38:00,37.3,29.0,30.00,SW,215,2.0,7.0,72,0.00,,,0.00,weatherlink.com 1.10,2013-04-05 08:38:00,
2013-04-05 04:53:00,37.4,29.0,30.00,SSE,165,2.0,5.0,71,0.00,,,0.00,weatherlink.com 1.10,2013-04-05 08:53:00,
2013-04-05 05:08:00,37.3,29.0,29.99,ESE,106,1.0,3.0,71,0.00,,,0.00,weatherlink.com 1.10,2013-04-05 09:08:00,
2013-04-05 05:23:00,37.3,29.0,29.97,SE,135,1.0,4.0,72,0.00,,,0.00,weatherlink.com 1.10,2013-04-05 09:23:00,
2013-04-05 05:38:00,37.2,29.0,29.98,SE,131,0.0,6.0,73,0.00,,,0.00,weatherlink.com 1.10,2013-04-05 09:38:00,
2013-04-05 05:53:00,37.3,29.0,29.97,SSE,162,2.0,6.0,73,0.00,,,0.00,weatherlink.com 1.10,2013-04-05 09:53:00,
2013-04-05 06:08:00,37.3,29.0,29.96,SSE,163,2.0,4.0,72,0.00,,,0.00,weatherlink.com 1.10,2013-04-05 10:08:00,
2013-04-05 06:23:00,37.4,29.0,29.96,SSE,163,2.0,4.0,72,0.00,,,0.00,weatherlink.com 1.10,2013-04-05 10:23:00,
2013-04-05 06:53:00,37.8,30.0,29.96,SE,132,0.0,5.0,72,0.00,,,0.00,weatherlink.com 1.10,2013-04-05 10:53:00,
2013-04-05 07:08:00,38.1,30.0,29.96,SE,136,0.0,4.0,73,0.00,,,0.00,weatherlink.com 1.10,2013-04-05 11:08:00,
2013-04-05 08:08:00,39.6,31.0,29.95,South,178,2.0,7.0,72,0.00,,,0.00,weatherlink.com 1.10,2013-04-05 12:08:00,
2013-04-05 08:39:00,40.6,32.0,29.93,South,181,3.0,5.0,71,0.00,,,0.00,weatherlink.com 1.10,2013-04-05 12:39:00,
2013-04-05 09:10:00,41.5,32.0,29.92,SE,131,2.0,5.0,68,0.00,,,0.00,weatherlink.com 1.10,2013-04-05 13:10:00,
2013-04-05 09:54:00,42.7,30.0,29.91,SSW,197,3.0,7.0,62,0.00,,,0.00,weatherlink.com 1.10,2013-04-05 13:54:00,
2013-04-05 10:09:00,43.3,30.0,29.89,West,260,2.0,6.0,60,0.00,,,0.00,weatherlink.com 1.10,2013-04-05 14:09:00,
2013-04-05 10:24:00,44.8,30.0,29.88,SE,134,3.0,6.0,57,0.00,,,0.00,weatherlink.com 1.10,2013-04-05 14:24:00,
2013-04-05 10:39:00,45.4,29.0,29.88,SW,233,5.0,6.0,53,0.00,,,0.00,weatherlink.com 1.10,2013-04-05 14:39:00,
2013-04-05 10:54:00,45.9,29.0,29.87,SW,217,4.0,5.0,52,0.00,,,0.00,weatherlink.com 1.10,2013-04-05 14:54:00,
2013-04-05 11:09:00,46.7,28.0,29.86,South,173,5.0,5.0,48,0.00,,,0.00,weatherlink.com 1.10,2013-04-05 15:09:00,
2013-04-05 11:24:00,47.7,25.0,29.86,SW,226,5.0,9.0,42,0.00,,,0.00,weatherlink.com 1.10,2013-04-05 15:24:00,
2013-04-05 11:54:00,48.1,27.0,29.83,SE,137,5.0,9.0,44,0.00,,,0.00,weatherlink.com 1.10,2013-04-05 15:54:00,
2013-04-05 12:09:00,48.7,28.0,29.82,SSW,212,3.0,8.0,45,0.00,,,0.00,weatherlink.com 1.10,2013-04-05 16:09:00,
2013-04-05 12:24:00,49.7,28.0,29.80,East,96,1.0,6.0,44,0.00,,,0.00,weatherlink.com 1.10,2013-04-05 16:24:00,
2013-04-05 12:39:00,51.0,28.0,29.79,West,264,1.0,5.0,41,0.00,,,0.00,weatherlink.com 1.10,2013-04-05 16:39:00,
2013-04-05 12:54:00,50.4,28.0,29.78,WNW,297,2.0,12.0,43,0.00,,,0.00,weatherlink.com 1.10,2013-04-05 16:54:00,
2013-04-05 13:09:00,51.3,30.0,29.77,WSW,255,4.0,9.0,44,0.00,,,0.00,weatherlink.com 1.10,2013-04-05 17:09:00,
2013-04-05 13:25:00,50.9,29.0,29.76,NW,323,4.0,11.0,43,0.00,,,0.00,weatherlink.com 1.10,2013-04-05 17:25:00,
2013-04-05 13:40:00,51.2,29.0,29.75,WNW,302,2.0,13.0,43,0.00,,,0.00,weatherlink.com 1.10,2013-04-05 17:40:00,
2013-04-05 13:55:00,51.6,28.0,29.73,NW,326,3.0,11.0,41,0.00,,,0.00,weatherlink.com 1.10,2013-04-05 17:55:00,
2013-04-05 14:10:00,52.6,27.0,29.72,SSW,204,0.0,6.0,38,0.00,,,0.00,weatherlink.com 1.10,2013-04-05 18:10:00,
2013-04-05 14:25:00,53.6,23.0,29.70,WNW,285,4.0,11.0,31,0.00,,,0.00,weatherlink.com 1.10,2013-04-05 18:25:00,
2013-04-05 14:40:00,54.3,22.0,29.69,NW,312,6.0,11.0,28,0.00,,,0.00,weatherlink.com 1.10,2013-04-05 18:40:00,
2013-04-05 14:55:00,54.9,21.0,29.69,West,269,0.0,9.0,27,0.00,,,0.00,weatherlink.com 1.10,2013-04-05 18:55:00,
2013-04-05 15:10:00,55.8,21.0,29.68,NNW,337,4.0,9.0,26,0.00,,,0.00,weatherlink.com 1.10,2013-04-05 19:10:00,
2013-04-05 15:25:00,56.4,20.0,29.67,WNW,285,4.0,9.0,24,0.00,,,0.00,weatherlink.com 1.10,2013-04-05 19:25:00,
2013-04-05 15:40:00,57.1,20.0,29.66,WNW,294,9.0,11.0,24,0.00,,,0.00,weatherlink.com 1.10,2013-04-05 19:40:00,
2013-04-05 15:55:00,58.0,19.0,29.65,West,278,3.0,7.0,22,0.00,,,0.00,weatherlink.com 1.10,2013-04-05 19:55:00,
2013-04-05 16:10:00,58.4,17.0,29.65,NNW,329,4.0,18.0,20,0.00,,,0.00,weatherlink.com 1.10,2013-04-05 20:10:00,
2013-04-05 16:25:00,58.9,21.0,29.65,WNW,293,6.0,16.0,23,0.00,,,0.00,weatherlink.com 1.10,2013-04-05 20:25:00,
2013-04-05 16:40:00,59.2,22.0,29.64,West,273,2.0,15.0,24,0.00,,,0.00,weatherlink.com 1.10,2013-04-05 20:40:00,
2013-04-05 16:55:00,58.9,22.0,29.65,WNW,298,3.0,17.0,24,0.00,,,0.00,weatherlink.com 1.10,2013-04-05 20:55:00,
2013-04-05 17:10:00,58.8,22.0,29.66,NNW,335,9.0,14.0,24,0.00,,,0.00,weatherlink.com 1.10,2013-04-05 21:10:00,
2013-04-05 17:25:00,58.1,19.0,29.66,WNW,301,12.0,22.0,22,0.00,,,0.00,weatherlink.com 1.10,2013-04-05 21:25:00,
2013-04-05 17:40:00,57.7,19.0,29.67,WNW,293,10.0,21.0,22,0.00,,,0.00,weatherlink.com 1.10,2013-04-05 21:40:00,
2013-04-05 17:55:00,57.4,19.0,29.68,NW,310,9.0,21.0,22,0.00,,,0.00,weatherlink.com 1.10,2013-04-05 21:55:00,
2013-04-05 18:10:00,56.6,20.0,29.69,WNW,297,16.0,20.0,24,0.00,,,0.00,weatherlink.com 1.10,2013-04-05 22:10:00,
2013-04-05 18:25:00,55.4,20.0,29.70,WNW,302,7.0,19.0,25,0.00,,,0.00,weatherlink.com 1.10,2013-04-05 22:25:00,
2013-04-05 18:40:00,54.8,20.0,29.72,WNW,290,5.0,22.0,26,0.00,,,0.00,weatherlink.com 1.10,2013-04-05 22:40:00,
2013-04-05 18:55:00,53.9,20.0,29.73,WSW,253,6.0,20.0,26,0.00,,,0.00,weatherlink.com 1.10,2013-04-05 22:55:00,
2013-04-05 19:10:00,53.2,19.0,29.73,West,259,4.0,13.0,26,0.00,,,0.00,weatherlink.com 1.10,2013-04-05 23:10:00,
2013-04-05 19:25:00,52.7,18.0,29.73,NW,304,7.0,14.0,26,0.00,,,0.00,weatherlink.com 1.10,2013-04-05 23:25:00,
2013-04-05 19:40:00,51.9,20.0,29.74,West,277,4.0,14.0,28,0.00,,,0.00,weatherlink.com 1.10,2013-04-05 23:40:00,
2013-04-05 19:55:00,51.4,20.0,29.75,West,275,2.0,11.0,29,0.00,,,0.00,weatherlink.com 1.10,2013-04-05 23:55:00,
2013-04-05 20:10:00,50.7,22.0,29.76,West,270,4.0,13.0,32,0.00,,,0.00,weatherlink.com 1.10,2013-04-06 00:10:00,
2013-04-05 20:25:00,50.2,23.0,29.78,West,281,6.0,18.0,35,0.00,,,0.00,weatherlink.com 1.10,2013-04-06 00:25:00,
2013-04-05 20:40:00,49.6,23.0,29.79,West,263,6.0,16.0,36,0.00,,,0.00,weatherlink.com 1.10,2013-04-06 00:40:00,
2013-04-05 20:55:00,49.1,23.0,29.80,WNW,293,8.0,16.0,36,0.00,,,0.00,weatherlink.com 1.10,2013-04-06 00:55:00,
2013-04-05 21:10:00,48.2,22.0,29.82,WNW,288,10.0,23.0,36,0.00,,,0.00,weatherlink.com 1.10,2013-04-06 01:10:00,
2013-04-05 21:25:00,47.5,22.0,29.82,West,277,8.0,24.0,36,0.00,,,0.00,weatherlink.com 1.10,2013-04-06 01:25:00,
2013-04-05 21:40:00,46.9,22.0,29.83,West,274,4.0,17.0,37,0.00,,,0.00,weatherlink.com 1.10,2013-04-06 01:40:00,
2013-04-05 21:55:00,46.1,22.0,29.84,NW,304,8.0,15.0,39,0.00,,,0.00,weatherlink.com 1.10,2013-04-06 01:55:00,
2013-04-05 22:10:00,45.4,22.0,29.84,West,275,4.0,17.0,40,0.00,,,0.00,weatherlink.com 1.10,2013-04-06 02:10:00,
2013-04-05 22:25:00,44.7,23.0,29.85,WNW,285,2.0,12.0,42,0.00,,,0.00,weatherlink.com 1.10,2013-04-06 02:25:00,
2013-04-05 22:40:00,44.2,24.0,29.86,WNW,292,4.0,20.0,46,0.00,,,0.00,weatherlink.com 1.10,2013-04-06 02:40:00,
2013-04-05 22:55:00,43.3,26.0,29.87,North,349,8.0,20.0,50,0.00,,,0.00,weatherlink.com 1.10,2013-04-06 02:55:00,
2013-04-05 23:10:00,42.4,26.0,29.88,North,351,7.0,18.0,53,0.00,,,0.00,weatherlink.com 1.10,2013-04-06 03:10:00,
2013-04-05 23:25:00,41.7,26.0,29.89,NNW,335,12.0,20.0,55,0.00,,,0.00,weatherlink.com 1.10,2013-04-06 03:25:00,
2013-04-05 23:40:00,41.3,26.0,29.89,WNW,293,5.0,17.0,55,0.00,,,0.00,weatherlink.com 1.10,2013-04-06 03:40:00,
2013-04-05 23:55:00,40.8,26.0,29.90,WNW,288,10.0,17.0,55,0.00,,,0.00,weatherlink.com 1.10,2013-04-06 03:55:00,